Sandy Hook Coast Guard Station, New Jersey, United States
Lat: 40.47N, Lon: 74.02W
Wx Zone: K56N
Local Info
Past Weather Observations for Today

NOTE: This archive is for the closest National Weather Service station to Sandy Hook Coast Guard Station. Information may differ from the station used for current weather conditions.

Time Weather Temperature Dewpoint Humidity Pressure Winds Precip Visibility
21:51
Mostly Cloudy
55°F / 13°C 23°F / -5°C 28% 30.33 in
(1027 mb)
NNE 13.8 mph
(NNE 22 kph)
- 10SM
20:51
Partly Cloudy
57°F / 14°C 25°F / -4°C 29% 30.33 in
(1027 mb)
NE 13.8 mph
(NE 22 kph)
- 10SM
19:51
Mostly Cloudy
61°F / 16°C 27°F / -3°C 27% 30.3 in
(1026 mb)
SE 4.6 mph
(SE 7 kph)
- 10SM
18:51
Mostly Cloudy
63°F / 17°C 21°F / -6°C 20% 30.27 in
(1025 mb)
NE 6.9 mph
(NE 11 kph)
- 10SM
17:51
Mostly Cloudy
64°F / 18°C 23°F / -5°C 21% 30.24 in
(1024 mb)
NE 11.5 mph
(NE 19 kph)
- 10SM
16:51
Mostly Cloudy
66°F / 19°C 19°F / -7°C 17% 30.24 in
(1024 mb)
NNW 10.4 mph
(NNW 17 kph)
- 10SM
15:51
Mostly Cloudy
66°F / 19°C 19°F / -7°C 17% 30.21 in
(1023 mb)
N 5.8 mph
(N 9 kph)
- 10SM
14:51
Mostly Cloudy
68°F / 20°C 19°F / -7°C 16% 30.21 in
(1023 mb)
N 10.4 mph
(N 17 kph)
- 10SM
13:51
Mostly Cloudy
66°F / 19°C 21°F / -6°C 18% 30.21 in
(1023 mb)
NNW 17.3 mph
(NNW 28 kph)
- 10SM
12:51
Mostly Cloudy
64°F / 18°C 27°F / -3°C 24% 30.24 in
(1024 mb)
N 13.8 mph
(N 22 kph)
- 10SM
11:51
Mostly Cloudy
64°F / 18°C 23°F / -5°C 21% 30.24 in
(1024 mb)
NNE 15 mph
(NNE 24 kph)
- 10SM
10:51
Mostly Cloudy
63°F / 17°C 21°F / -6°C 20% 30.27 in
(1025 mb)
NNW 10.4 mph
(NNW 17 kph)
- 10SM
09:51
Mostly Cloudy
61°F / 16°C 28°F / -2°C 29% 30.27 in
(1025 mb)
NW 10.4 mph
(NW 17 kph)
- 10SM
08:51
Mostly Cloudy
57°F / 14°C 30°F / -1°C 36% 30.27 in
(1025 mb)
N 10.4 mph
(N 17 kph)
- 10SM
07:51
Partly Cloudy
52°F / 11°C 37°F / 3°C 58% 30.27 in
(1025 mb)
Variable 3.5 mph
(Variable 6 kph)
- 10SM
06:51
Mostly Cloudy
45°F / 7°C 37°F / 3°C 76% 30.27 in
(1025 mb)
Variable 3.5 mph
(Variable 6 kph)
- 10SM
05:51
Mostly Cloudy
41°F / 5°C 36°F / 2°C 81% 30.24 in
(1024 mb)
SSW 5.8 mph
(SSW 9 kph)
- 10SM
04:51
Mostly Cloudy
39°F / 4°C 36°F / 2°C 87% 30.24 in
(1024 mb)
SW 6.9 mph
(SW 11 kph)
- 10SM
03:51
Mostly Cloudy
39°F / 4°C 34°F / 1°C 81% 30.24 in
(1024 mb)
SW 5.8 mph
(SW 9 kph)
- 10SM
02:51
Overcast
39°F / 4°C 34°F / 1°C 81% 30.24 in
(1024 mb)
SW 4.6 mph
(SW 7 kph)
- 10SM
01:51
Overcast
39°F / 4°C 34°F / 1°C 81% 30.24 in
(1024 mb)
SW 6.9 mph
(SW 11 kph)
- 10SM
00:51
Overcast
39°F / 4°C 32°F / 0°C 75% 30.27 in
(1025 mb)
SSE 3.5 mph
(SSE 6 kph)
- 10SM
Time Weather Temperature Dewpoint Humidity Pressure Winds Precip Visibility


Weather for websites

WeatherForYou.com, LLC is not responsible for any damages or problems caused by this service. Current weather conditions are obtained from the closest station including government and personal stations which may have varying degrees of accuracy. Weather forecasts are derived from the NOAA NDFD. Like all things, this site belongs to Jesus Christ... He just trusts me to maintain it. If you have any questions or comments email webmaster@weatherforyou.com

Copyright © 2014, WeatherForYou.com LLC. All rights reserved.